Location: Pasadena, ca
(34.1243°N, 118.1037°W)
Time: 01:33:42
(UTC-08:00)

N. Korean satellite - Pass Details

Date: 17 November 2017
Orbit: 460 x 514 km, 97.2° (Epoch: 23 November)

Event Time Altitude Azimuth Distance (km) Brightness Sun altitude
Rises 17:42:25 0° 158° (SSE) 2,474 10.1 -11.6°
Reaches altitude 10° 17:44:27 10° 153° (SSE) 1,607 9.1 -12.0°
Maximum altitude 17:47:49 53° 76° (ENE) 582 6.5 -12.7°
Drops below altitude 10° 17:51:15 10° 359° (N) 1,639 9.1 -13.4°
Sets 17:53:21 0° 355° (N) 2,529 10.1 -13.8°
